Regional Weather Roundup
Issued by NWS Binghamton, NY

Home | Current Version | Previous Version | Text Only | Print | Product List | Glossary On
Versions: 1 2 3 4 5 6 7 8 9 10 11 12 13 14 15 16 17 18 19 20 21 22 23 24 25 26 27 28 29 30 31 32 33 34 35 36 37 38 39 40 41 42 43 44 45 46 47 48 49 50
000
ASUS41 KBGM 061110
RWRBGM
RWRBGM
BINGHAMTON REGIONAL WEATHER ROUNDUP
NATIONAL WEATHER SERVICE BINGHAMTON NY
700 AM EDT MON JUL 06 2015

Note: "fair" indicates few or no clouds below 12,000 feet with no
significant weather and/or obstructions to visibility.

* = Station(s) that does not report precipitation, such as rain,
snow, etc, also no thunder or fog.

!NYZ009-015>018-022>025-036-037-044>046-055>057-062-061200
...CENTRAL NEW YORK...

CITY           SKY/WX    TMP DP  RH WIND       PRES   REMARKS
BINGHAMTON     MOSUNNY   58  56  93 SE3       30.17S
CORTLAND       FAIR      55  55 100 CALM      30.18S
DANSVILLE      MOSUNNY   61  58  90 E7        30.15R
ELMIRA         FOG       57  57 100 CALM      30.15S VSB 1/2
ITHACA         MOSUNNY   61  56  83 E6        30.17R
MONTICELLO     MOSUNNY   55  54  94 CALM      30.21S
NORWICH        SUNNY     54  54 100 CALM      30.19S FOG
ONEONTA        SUNNY     55  55 100 CALM      30.20S
PENN YAN       PTSUNNY   63  61  93 SW3       30.15R FOG
ROME           MOSUNNY   57  55  93 SE6       30.16S
SIDNEY         FOG       55  55 100 CALM      30.20S VSB 3/4
SYRACUSE       MOSUNNY   59  58  96 E5        30.13S
$$

!PAZ038>040-043-044-047-048-072-061200
...NORTHEAST PENNSYLVANIA...

CITY           SKY/WX    TMP DP  RH WIND       PRES   REMARKS
HAZLETON       CLOUDY    64  63  94 CALM      30.22R
SCRANTON       MOSUNNY   64  58  80 CALM      30.17R
TOWANDA*         N/A     61  61 100 MISG      30.17S VSB 1/4
$$
&&
KEY
WCI = WIND CHILL INDEX
VSB = VISIBILITY
HX  = HEAT INDEX
$$



USA.gov is the U.S. government's official web portal to all federal, state and local government web resources and services.